Tracking 19706 objects as of 16-Jun-2019
HD Live streaming from Space Station
objects crossing your sky now

DELTA 1 DEB

Track DELTA 1 DEB now!
10-day predictions


NORAD ID: 14883
Int'l Code: 1973-086GS
Perigee: 1,495.4 km
Apogee: 1,884.3 km
Inclination: 102.0 °
Period: 120.0 minutes
Semi major axis: 8060 km
RCS: 0.0421 m2 (small)
Launch date: November 6, 1973
Source: United States (US)
Launch site: AIR FORCE WESTERN TEST RANGE (AFWTR)

Note: This is SATELLITE DEBRIS
aabbcc
Your satellite tracking list
Your tracking list is empty




NASA's NSSDC Master Catalog

Two Line Element Set (TLE):
1 14883U 73086GS  19165.52553043 +.00000379 +00000-0 +47947-2 0  9999
2 14883 101.9877 187.2860 0241257 243.1093 276.2130 11.99583559320601
Source of the keplerian elements: AFSPC